Temperature
6 5 6 5 5 5 5 5 5 4 4 5 5 5 5 5 5 5 5 5 5 5 5 5 5 5 5 5 5 5 5 5 5 5 5 5 5 5
5 5 5 5 5 5 5 5 5 4 4 4 4 4 4 5 5 5 5 5 5 5 5 5 5 5 5 5 5 5 4 4 4 4 5 5 5 5
4 4 4 4 4 4 4 4 4 4 4 4 4 4 4 4 4 4 4 4 4 4 4 4 4 4 4 4 4 4 4 4 4 4 4 4 4 4
4 4 4 4 4 4 4 4 4 4 3 3 3 3 3 3 4 4 4 4 4 4 4 4 4 4 4 4 4 4 4 4 4 4 4 4 4 4
3 4 3 3 3 3 3 3 3 3 3 3 3 3 3 3 3 3 3 3 3 3 3 3 3 3 3 3 3 3 3 3 3 3 3 3 3 3
3 3 3 3 3 3 3 3 3 3 3 2 2 2 2 3 2 3 3 3 3 3 3 3 3 3 3 3 3 3 3 3 3 3 3 3 3 3
2 2 2 2 2 2 2 2 2 2 2 2 2 2 2 2 2 2 2 2 2 2 2 2 2 2 2 2 2 2 2 2 2 2 2 2 2 2
2 2 2 2 2 2 2 2 2 2 1 1 1 1 2 2 1 1 1 1 1 1 1 2 2 2 2 2 2 2 2 1 1 1 1 1 1 1
1 1 1 1 1 1 1 1 1 1 1 1 1 1 1 1 1 1 1 1 1 1 1 1 1 1 1 1 1 1 1 1 1 1 1 1 1 1
1 1 1 1 1 1 1 1 1 0 0 0 0 0 0 0 0 0 0 0 0 0 -0 -0 0 0 0 0 0 0 0 0 0 0 0 0 0 0
-0 -0 -0 -0 -0 -0 0 0 -0 -0 -0 -0 -0 -0 -0 -0 -0 -0 -0 -0 -1 -0 -1 -1 -1 -0 -0 -0 -0 -0 -0 -0 -0 -0 -0 -0 -0 -1
-1 -1 -1 -1 -1 -1 -1 -1 -1 -1 -1 -1 -1 -1 -1 -1 -1 -1 -1 -1 -1 -1 -1 -1 -1 -1 -1 -1 -1 -1 -1 -1 -1 -1 -1 -1 -1 -1
-2 -1 -2 -1 -1 -1 -1 -1 -1 -1 -1 -1 -1 -1 -1 -1 -1 -1 -1 -1 -2 -2 -2 -2 -2 -2 -2 -2 -2 -2 -2 -2 -2 -1 -2 -2 -2 -2
-2 -2 -2 -2 -2 -2 -2 -2 -2 -2 -2 -2 -2 -2 -2 -2 -2 -2 -2 -2 -2 -2 -3 -3 -3 -3 -3 -3 -3 -2 -2 -2 -2 -2 -2 -2 -2 -2
-3 -3 -3 -3 -3 -3 -2 -2 -2 -2 -2 -3 -3 -3 -2 -2 -3 -3 -3 -3 -3 -3 -3 -3 -3 -3 -3 -3 -3 -3 -3 -3 -3 -3 -3 -3 -3 -3
-3 -3 -3 -3 -3 -3 -3 -3 -3 -3 -3 -3 -3 -3 -3 -3 -3 -3 -3 -3 -3 -3 -3 -4 -4 -4 -4 -4 -4 -4 -4 -4 -4 -4 -4 -4 -4 -4
-4 -4 -4 -4 -4 -4 -4 -3 -4 -4 -4 -4 -4 -4 -4 -4 -4 -4 -4 -4 -4 -4 -4 -4 -4 -4 -4 -4 -4 -4 -4 -4 -4 -4 -5 -4 -4 -4
-4 -4 -4 -4 -4 -4 -4 -4 -4 -4 -4 -4 -4 -4 -4 -4 -5 -5 -5 -5 -5 -5 -5 -5 -5 -5 -5 -5 -5 -5 -5 -5 -5 -5 -5 -5 -5 -5
-5 -5 -5 -5 -5 -5 -5 -5 -5 -5 -5 -5 -5 -5 -5 -5 -5 -5 -5 -5 -5 -5 -5 -5 -5 -6 -6 -6 -5 -5 -5 -6 -6 -6 -6 -6 -6 -5
-6 -6 -6 -6 -6 -6 -6 -6 -6 -6 -6 -6 -6 -6 -6 -6 -6 -6 -6 -6 -6 -6 -6 -6 -6 -6 -6 -6 -6 -5 -6 -6 -6 -6 -6 -6 -6 -6
-6 -6 -6 -6 -6 -6 -6 -6 -6 -6 -6 -6 -6 -6 -6 -6 -6 -6 -6 -6 -6 -7 -7 -6 -6 -7 -7 -7 -7 -6 -6 -6 -7 -7 -7 -7 -7 -7
-7 -7 -7 -7 -7 -7 -7 -7 -7 -7 -7 -7 -7 -7 -7 -7 -7 -7 -7 -7 -7 -7 -7 -7 -7 -7 -7 -7 -7 -7 -7 -7 -7 -7 -7 -7 -8 -8
-8 -8 -8 -8 -8 -7 -7 -7 -7 -8 -7 -7 -7 -7 -7 -7 -7 -7 -7 -7 -7 -7 -7 -7 -7 -7 -7 -7 -8 -7 -7 -7 -7 -7 -7 -7 -8 -8
Wind_Speed
3 3 3 2 2 2 2 3 3 2 3 2 1 1 2 2 3 3 3 5 5 6 6 6 6 5 6 6 6 6 6 7 8 9 10 11 11 12
2 2 2 2 2 2 2 2 2 3 3 2 2 1 1 2 2 3 4 4 5 6 6 6 6 6 7 6 7 7 7 7 8 9 10 11 12 12
1 2 2 2 2 2 2 2 2 2 3 2 1 1 1 1 1 2 3 4 4 6 6 7 7 7 7 8 8 8 8 8 8 9 10 11 12 12
2 2 1 1 1 1 1 2 2 3 3 3 2 1 1 2 1 2 3 4 5 7 8 8 8 8 8 8 8 8 8 8 8 9 10 11 12 12
2 2 2 1 2 1 1 1 2 2 2 2 2 1 1 1 1 1 2 2 4 6 7 8 8 9 9 9 9 9 9 9 9 9 10 10 11 12
1 1 1 2 2 2 2 2 1 1 1 1 1 1 1 1 0 1 2 2 2 3 5 6 8 9 10 10 10 10 10 10 10 10 10 10 11 12
1 1 1 2 1 2 2 2 2 2 1 1 1 1 1 1 2 1 2 2 2 2 2 4 4 6 7 9 9 10 10 10 10 10 11 11 10 11
1 1 1 1 1 1 1 1 2 3 3 2 2 2 3 2 2 2 2 2 3 2 2 3 3 4 5 6 8 9 10 10 9 10 11 11 10 10
1 1 1 1 1 1 1 1 1 1 2 3 3 4 4 3 3 3 3 3 4 2 1 4 2 4 5 7 8 9 9 10 10 10 10 10 9 9
1 1 1 0 0 1 1 1 1 1 1 1 2 3 3 3 3 4 4 3 2 2 1 3 3 3 5 5 7 8 9 10 10 10 10 10 10 10
0 0 1 1 0 0 1 1 0 1 1 1 2 2 2 3 2 1 1 2 3 3 1 2 2 3 3 3 6 7 8 8 9 10 10 10 10 10
1 1 0 0 1 1 1 2 2 2 1 1 1 2 2 3 3 2 2 2 2 2 1 1 1 1 2 3 3 5 7 9 10 10 10 10 9 7
1 1 1 0 1 1 1 1 2 2 1 1 1 1 2 2 2 2 1 2 3 3 2 1 1 1 2 3 3 3 4 5 7 8 9 9 9 7
1 1 1 2 2 2 1 1 1 1 0 1 1 1 2 2 2 3 2 2 2 3 3 2 2 2 2 3 3 3 3 5 4 5 6 8 9 10
1 2 2 3 3 2 1 2 2 1 1 1 1 2 2 2 2 2 2 2 2 2 2 2 2 2 3 4 4 3 3 3 4 3 4 5 6 6
2 2 3 3 3 2 2 2 1 1 1 1 1 2 2 1 1 2 2 2 1 2 3 3 3 3 3 4 4 5 4 3 3 4 4 4 6 6
2 2 2 2 2 2 2 1 1 1 1 1 1 1 2 2 2 2 2 1 2 3 3 2 3 4 4 4 4 5 5 5 4 4 3 4 4 6
2 1 1 2 2 2 2 2 2 1 1 1 1 1 2 2 2 2 2 2 3 3 3 2 2 2 3 3 6 5 5 4 4 4 3 4 6 5
2 1 1 1 2 2 2 2 2 2 1 1 1 2 2 2 2 2 2 3 3 3 3 2 2 2 3 5 4 4 3 4 4 4 4 4 6 6
1 1 1 2 2 2 2 2 2 2 2 2 2 2 2 2 2 3 3 3 3 3 3 3 3 3 4 4 4 4 7 5 4 5 5 5 5 8
2 2 2 2 2 2 3 3 3 3 3 2 2 2 3 3 3 3 4 5 4 4 4 4 4 5 3 2 3 4 4 7 6 5 4 5 5 5
2 2 2 3 2 2 3 3 3 3 3 3 3 3 3 3 4 4 4 4 4 4 5 4 3 2 2 4 5 5 5 5 7 8 8 7 4 4
3 3 3 3 3 3 3 3 4 4 4 4 4 4 4 4 4 4 4 4 4 4 4 3 3 2 3 4 5 5 6 6 5 5 5 9 11 13
Wind_Direction
184 180 166 168 164 170 173 173 179 221 246 242 247 263 233 215 220 213 226 239 242 251 256 259 259 245 241 245 248 249 252 250 253 258 256 253 255 258
160 163 166 166 166 168 182 200 189 199 236 237 237 279 246 231 229 226 226 245 248 252 256 255 255 248 244 245 244 245 249 252 257 262 260 258 257 258
148 154 170 167 177 187 191 189 187 184 219 255 229 269 256 236 247 244 238 241 247 255 255 256 254 249 246 243 241 243 247 255 258 263 263 260 257 256
158 147 170 172 173 189 178 186 198 200 193 223 236 250 254 240 225 232 250 251 249 255 255 252 251 249 248 245 244 246 248 252 258 265 266 261 258 256
155 159 172 165 178 176 173 195 208 205 192 201 231 242 277 282 268 285 267 265 268 263 261 255 252 252 252 253 252 250 249 249 253 261 267 264 260 258
104 134 158 174 188 189 193 194 183 172 171 189 227 252 269 281 227 264 279 275 280 281 274 268 263 258 257 257 257 256 253 251 253 258 264 264 259 258
87 98 134 144 182 187 191 186 173 175 181 202 228 250 257 261 248 244 263 279 284 275 284 280 269 262 261 258 256 258 257 255 255 260 266 266 261 259
124 69 59 100 126 122 138 164 179 190 201 211 229 241 251 260 261 253 251 273 276 271 275 282 264 263 258 255 262 263 262 261 261 265 267 265 262 262
161 139 17 6 37 98 65 55 38 301 222 217 226 245 249 247 244 247 247 250 254 267 268 276 277 273 277 269 265 265 266 267 268 268 267 265 264 265
154 170 164 193 281 140 124 99 46 334 290 252 222 248 267 267 250 246 243 250 269 294 246 262 274 275 289 285 277 273 272 270 269 269 268 267 266 267
181 171 163 157 247 218 155 156 297 305 307 242 254 279 293 295 293 280 264 264 275 276 261 246 274 291 292 290 292 292 289 286 282 277 274 273 272 273
61 74 30 252 226 225 197 188 217 259 270 302 320 319 325 322 308 268 232 243 264 263 250 237 283 328 302 292 296 307 305 297 293 288 284 282 282 278
31 16 6 8 310 299 276 226 230 250 261 263 290 303 316 323 333 329 284 233 239 255 246 211 269 279 259 291 303 302 303 305 302 297 294 289 284 278
8 355 356 354 323 310 298 265 272 298 278 274 295 298 304 300 307 326 310 290 261 252 246 219 226 243 255 277 284 298 308 304 299 299 300 299 293 283
357 351 346 348 344 332 341 317 304 277 236 249 269 278 278 288 319 332 338 339 332 316 276 262 245 244 240 253 272 285 297 295 286 282 289 289 285 286
356 359 2 2 358 345 333 322 296 254 231 243 259 281 302 315 311 314 306 296 298 310 325 299 272 249 252 260 263 273 269 270 281 277 277 283 286 280
334 333 341 347 354 343 327 316 306 298 292 288 286 298 305 306 312 319 318 317 283 282 293 320 327 304 279 255 263 264 267 269 269 273 277 284 282 281
329 317 324 334 332 335 337 325 316 307 295 274 270 272 280 284 292 308 307 297 284 281 277 286 306 322 318 285 246 252 260 266 275 275 271 275 284 284
343 330 321 315 315 317 318 315 300 290 282 265 262 269 272 273 280 284 284 286 280 277 277 273 270 268 281 287 277 248 261 279 285 281 271 263 275 282
337 308 302 305 304 302 301 303 304 302 289 279 273 266 264 266 271 269 267 270 271 273 272 266 252 246 248 261 271 281 279 269 267 273 281 281 281 287
327 320 314 307 301 297 296 295 289 287 282 270 268 268 261 259 262 261 259 269 268 263 261 261 258 270 268 261 277 281 282 280 274 270 278 288 294 292
324 321 315 308 303 296 294 294 290 282 278 269 266 262 261 257 259 260 258 262 261 258 263 273 279 275 256 257 269 276 288 300 300 291 279 269 272 268
324 320 312 304 295 290 285 282 281 281 274 268 264 259 258 259 259 257 255 253 259 263 271 275 276 268 264 265 270 279 283 289 297 297 291 291 283 281
Height
1505 1507 1508 1510 1511 1513 1514 1516 1517 1517 1518 1519 1520 1521 1523 1523 1523 1524 1525 1525 1526 1526 1527 1527 1528 1528 1529 1529 1530 1530 1530 1530 1530 1530 1530 1530 1530 1531
1501 1503 1505 1506 1507 1509 1511 1512 1513 1514 1514 1515 1516 1518 1519 1519 1520 1520 1521 1521 1521 1522 1523 1523 1523 1524 1524 1525 1525 1525 1525 1525 1525 1524 1524 1524 1524 1524
1498 1499 1501 1503 1504 1505 1507 1508 1509 1510 1510 1511 1513 1514 1515 1515 1516 1516 1517 1517 1517 1518 1518 1519 1519 1519 1519 1520 1520 1520 1520 1519 1519 1519 1518 1518 1518 1518
1494 1496 1498 1499 1500 1502 1503 1503 1505 1506 1507 1507 1508 1510 1511 1511 1511 1512 1512 1513 1513 1514 1514 1514 1514 1514 1514 1515 1515 1515 1514 1514 1514 1513 1513 1512 1513 1513
1491 1493 1494 1496 1497 1498 1499 1500 1501 1502 1503 1503 1504 1505 1506 1507 1507 1508 1508 1508 1509 1509 1509 1509 1510 1509 1510 1510 1509 1509 1509 1509 1508 1508 1507 1507 1507 1507
1488 1490 1491 1492 1493 1494 1495 1496 1497 1498 1499 1499 1500 1501 1502 1503 1503 1503 1503 1504 1504 1505 1505 1505 1505 1505 1505 1504 1504 1504 1503 1503 1503 1503 1502 1501 1501 1502
1485 1486 1488 1489 1490 1491 1492 1492 1493 1494 1495 1495 1496 1496 1497 1498 1498 1498 1499 1499 1499 1500 1500 1500 1500 1499 1499 1499 1499 1498 1498 1498 1498 1497 1497 1496 1496 1496
1482 1483 1484 1486 1487 1488 1489 1489 1490 1491 1491 1491 1492 1492 1492 1493 1494 1494 1494 1494 1494 1495 1495 1494 1495 1494 1494 1494 1494 1494 1493 1493 1493 1492 1492 1491 1490 1490
1479 1480 1481 1482 1483 1484 1485 1486 1487 1487 1488 1489 1488 1488 1489 1489 1490 1490 1490 1490 1490 1490 1490 1489 1489 1489 1489 1489 1489 1489 1488 1488 1488 1487 1487 1486 1485 1485
1476 1477 1478 1479 1480 1481 1482 1482 1483 1483 1484 1485 1485 1485 1485 1486 1486 1486 1486 1486 1485 1486 1486 1484 1484 1484 1484 1484 1484 1484 1484 1483 1482 1482 1481 1481 1480 1480
1474 1475 1476 1476 1477 1478 1479 1479 1479 1480 1481 1481 1481 1481 1482 1482 1482 1482 1482 1481 1480 1480 1481 1480 1479 1478 1478 1478 1478 1479 1478 1478 1478 1477 1476 1476 1475 1475
1471 1472 1473 1474 1474 1475 1476 1476 1476 1476 1477 1477 1477 1478 1478 1478 1478 1478 1477 1477 1476 1475 1476 1476 1475 1475 1473 1473 1474 1474 1473 1473 1473 1472 1471 1471 1470 1470
1469 1469 1470 1471 1471 1472 1473 1473 1472 1473 1473 1473 1473 1473 1473 1473 1473 1473 1473 1473 1472 1471 1472 1472 1471 1471 1470 1469 1469 1469 1469 1468 1467 1467 1466 1466 1465 1464
1466 1467 1467 1468 1468 1469 1469 1469 1470 1470 1470 1470 1469 1469 1469 1469 1469 1469 1468 1468 1468 1468 1468 1468 1467 1467 1466 1464 1464 1464 1464 1464 1463 1462 1461 1460 1460 1459
1464 1464 1464 1465 1465 1465 1465 1466 1466 1466 1466 1466 1465 1466 1466 1465 1465 1464 1464 1464 1464 1464 1464 1464 1463 1463 1462 1461 1460 1459 1459 1458 1458 1457 1456 1455 1454 1453
1461 1461 1461 1461 1462 1462 1462 1462 1462 1462 1462 1462 1462 1462 1462 1462 1461 1460 1460 1459 1459 1459 1459 1459 1459 1458 1457 1457 1456 1455 1455 1454 1453 1452 1451 1450 1449 1448
1459 1459 1459 1459 1458 1458 1458 1458 1459 1459 1459 1459 1459 1458 1458 1458 1457 1457 1456 1455 1455 1454 1454 1454 1454 1454 1453 1453 1451 1451 1450 1449 1448 1447 1446 1444 1444 1443
1456 1456 1456 1455 1455 1455 1455 1455 1455 1455 1455 1455 1455 1455 1454 1454 1453 1453 1452 1452 1451 1450 1450 1449 1449 1449 1448 1447 1448 1446 1446 1444 1443 1442 1441 1439 1437 1437
1453 1453 1452 1452 1452 1452 1452 1452 1451 1452 1452 1452 1451 1451 1451 1450 1450 1449 1448 1447 1447 1446 1446 1445 1445 1444 1443 1442 1442 1443 1441 1439 1438 1437 1435 1434 1432 1431
1450 1450 1450 1449 1449 1449 1449 1448 1448 1448 1448 1448 1447 1447 1447 1447 1446 1445 1444 1444 1443 1442 1442 1441 1441 1441 1440 1439 1438 1437 1437 1435 1433 1431 1430 1429 1427 1426
1447 1446 1446 1446 1446 1445 1445 1445 1444 1444 1444 1443 1443 1443 1443 1442 1441 1441 1440 1439 1439 1438 1437 1437 1437 1437 1436 1435 1434 1431 1432 1431 1429 1427 1426 1424 1422 1420
1444 1443 1443 1443 1442 1442 1441 1441 1440 1440 1439 1439 1439 1438 1438 1438 1437 1437 1436 1435 1435 1434 1433 1433 1433 1432 1432 1431 1429 1427 1426 1425 1425 1424 1422 1421 1419 1416
1441 1440 1439 1439 1438 1438 1437 1436 1436 1435 1435 1434 1434 1433 1433 1433 1433 1432 1431 1431 1431 1430 1429 1428 1428 1428 1427 1426 1425 1423 1422 1420 1419 1418 1417 1417 1415 1414